Regional Weather Roundup
Issued by NWS Little Rock, AR

Home | Current Version | Previous Version | Graphics & Text | Print | Product List | Glossary On
Versions: 1 2 3 4 5 6 7 8 9 10 11 12 13 14 15 16 17 18 19 20 21 22 23 24 25 26 27 28 29 30 31 32 33 34 35 36 37 38 39 40 41 42 43 44 45 46 47 48 49 50
000
ASUS44 KLZK 270605
RWRLZK

WEATHER ROUNDUP FOR ARKANSAS
NATIONAL WEATHER SERVICE LITTLE ROCK AR
100 AM CDT THU AUG 27 2015

NOTE: "FAIR" INDICATES FEW OR NO CLOUDS BELOW 12,000 FEET WITH NO
SIGNIFICANT WEATHER AND/OR OBSTRUCTIONS TO VISIBILITY.

ARZ001-003-010-029-270700-
NORTHWEST ARKANSAS

CITY           SKY/WX    TMP DP  RH WIND       PRES   REMARKS
FAYETTEVILLE   FAIR      61  61 100 CALM      30.14S
6HR MIN TEMP:  61; 6HR MAX TEMP:  79;

FORT SMITH     FAIR      67  62  84 CALM      30.08S
6HR MIN TEMP:  67; 6HR MAX TEMP:  84;

HARRISON       FAIR      63  62  97 CALM      30.15S
6HR MIN TEMP:  63; 6HR MAX TEMP:  79;

BENTONVILLE    FAIR      64  61  88 CALM      30.13F
6HR MIN TEMP:  64; 6HR MAX TEMP:  81;

ROGERS         FAIR      67  65  93 CALM      30.14S
6HR MIN TEMP:  66; 6HR MAX TEMP:  80;

SILOAM SPGS    FAIR      64  59  82 E3        30.11S
6HR MIN TEMP:  64; 6HR MAX TEMP:  81;

HIGHFILL       FAIR      64  61  90 CALM      30.13S
6HR MIN TEMP:  64; 6HR MAX TEMP:  82;

$$

ARZ004-005-016-270700-
NORTH CENTRAL ARKANSAS

CITY           SKY/WX    TMP DP  RH WIND       PRES   REMARKS
BATESVILLE     FAIR      61  59  94 CALM      30.12S
6HR MIN TEMP:  61; 6HR MAX TEMP:  81;

FLIPPIN        FAIR      64  57  77 CALM      30.11F
6HR MIN TEMP:  64; 6HR MAX TEMP:  82;

MTN HOME       FAIR      64  59  83 NE5       30.13S
6HR MIN TEMP:  64; 6HR MAX TEMP:  77;

$$

ARZ040-041-270700-
WEST CENTRAL ARKANSAS

CITY           SKY/WX    TMP DP  RH WIND       PRES   REMARKS
MENA           FAIR      63  61  94 CALM      30.12S
MOUNT IDA      FAIR      63  61  93 CALM      30.08S
6HR MIN TEMP:  63; 6HR MAX TEMP:  86;

$$

ARZ009-017-025-026-028-270700-
NORTHEAST ARKANSAS

CITY           SKY/WX    TMP DP  RH WIND       PRES   REMARKS
JONESBORO      FAIR      61  57  87 N5        30.10S
6HR MIN TEMP:  60; 6HR MAX TEMP:  74;

NEWPORT        FAIR      64  61  90 NW5       30.13R
6HR MIN TEMP:  64; 6HR MAX TEMP:  76;

WALNUT RIDGE   FAIR      61  55  82 N8        30.12S
6HR MIN TEMP:  61; 6HR MAX TEMP:  79;

BLYTHEVILLE    FAIR      60  59  96 NE6       30.10S
6HR MIN TEMP:  60; 6HR MAX TEMP:  75;

$$

ARZ022-023-033-042-044-270700-
CENTRAL ARKANSAS

CITY           SKY/WX    TMP DP  RH WIND       PRES   REMARKS
LITTLE ROCK    FAIR      70  62  76 CALM      30.09F
6HR MIN TEMP:  69; 6HR MAX TEMP:  85;

N LITTLE ROCK    N/A     69  64  85 E3        30.09F
6HR MIN TEMP:  69; 6HR MAX TEMP:  83;

JACKSONVILLE   FAIR      66  62  87 CALM      30.09S
6HR MIN TEMP:  65; 6HR MAX TEMP:  81;

SEARCY         FAIR      63  62  97 CALM      30.12R
6HR MIN TEMP:  62; 6HR MAX TEMP:  81;

HOT SPRINGS    FAIR      71  62  73 E8        30.09F
6HR MIN TEMP:  69; 6HR MAX TEMP:  86;

RUSSELLVILLE   FAIR      67  65  93 CALM      30.09R
6HR MIN TEMP:  67; 6HR MAX TEMP:  84;

$$

ARZ036-270700-
EAST ARKANSAS

CITY           SKY/WX    TMP DP  RH WIND       PRES   REMARKS
WEST MEMPHIS   FAIR      65  59  81 NE6       30.08S
6HR MIN TEMP:  62; 6HR MAX TEMP:  78;

$$

ARZ050-053-066-070-073-270700-
SOUTHWEST ARKANSAS

CITY           SKY/WX    TMP DP  RH WIND       PRES   REMARKS
ARKADELPHIA    FAIR      65  64  96 CALM      30.09S
6HR MIN TEMP:  65; 6HR MAX TEMP:  89;

CAMDEN         FAIR      64  63  94 CALM      30.08S
TEXARKANA      FAIR      68  63  84 CALM      30.08S
6HR MIN TEMP:  68; 6HR MAX TEMP:  88;

EL DORADO      FAIR      64  62  93 CALM      30.08S
6HR MIN TEMP:  64; 6HR MAX TEMP:  86;

DE QUEEN       FAIR      65  64  97 CALM      30.06F
6HR MIN TEMP:  65; 6HR MAX TEMP:  87;

$$

ARZ056-057-069-270700-
SOUTHEAST ARKANSAS

CITY           SKY/WX    TMP DP  RH WIND       PRES   REMARKS
PINE BLUFF     FAIR      64  61  90 CALM      30.08F
6HR MIN TEMP:  64; 6HR MAX TEMP:  80;

STUTTGART      FAIR      64  57  77 N5        30.09
6HR MIN TEMP:  64; 6HR MAX TEMP:  81;

MONTICELLO     FAIR      65  60  84 CALM      30.07S
6HR MIN TEMP:  65; 6HR MAX TEMP:  83;


$$





USA.gov is the U.S. government's official web portal to all federal, state and local government web resources and services.